TimeEST,TemperatureF,Dew PointF,Humidity,Sea Level PressureIn,VisibilityMPH,Wind Direction,Wind SpeedMPH,Gust SpeedMPH,PrecipitationIn,Events,Conditions,WindDirDegrees,DateUTC
12:21 AM,39.2,33.8,81,30.01,8.0,West,3.5,-,0.00,,Overcast,260,2011-11-30 05:21:00
12:48 AM,39.2,33.8,81,30.01,10.0,West,5.8,-,0.00,,Overcast,280,2011-11-30 05:48:00
12:53 AM,39.9,34.0,79,30.02,10.0,West,4.6,-,0.00,,Overcast,280,2011-11-30 05:53:00
1:53 AM,39.9,34.0,79,30.02,10.0,West,8.1,-,N/A,,Mostly Cloudy,280,2011-11-30 06:53:00
2:53 AM,39.9,35.1,83,30.03,10.0,WNW,4.6,-,N/A,,Overcast,290,2011-11-30 07:53:00
3:53 AM,39.9,35.1,83,30.03,10.0,West,4.6,-,N/A,,Overcast,270,2011-11-30 08:53:00
4:53 AM,41.0,35.1,79,30.03,10.0,West,5.8,-,N/A,,Overcast,270,2011-11-30 09:53:00
5:53 AM,42.1,34.0,73,30.04,10.0,NW,9.2,-,N/A,,Overcast,310,2011-11-30 10:53:00
6:53 AM,42.8,33.8,70,30.06,10.0,NW,8.1,-,N/A,,Overcast,320,2011-11-30 11:53:00
7:53 AM,41.0,35.6,81,30.08,10.0,West,6.9,-,N/A,,Mostly Cloudy,280,2011-11-30 12:53:00
8:53 AM,41.0,30.0,65,30.13,10.0,WNW,10.4,-,N/A,,Mostly Cloudy,290,2011-11-30 13:53:00
9:48 AM,41.0,30.2,65,30.14,10.0,NNW,10.4,18.4,N/A,,Mostly Cloudy,340,2011-11-30 14:48:00
9:53 AM,41.0,30.0,65,30.15,10.0,NNW,12.7,18.4,N/A,,Mostly Cloudy,330,2011-11-30 14:53:00
10:53 AM,41.0,30.0,65,30.16,10.0,NW,9.2,-,N/A,,Overcast,310,2011-11-30 15:53:00
11:53 AM,41.0,30.0,65,30.17,10.0,North,8.1,-,N/A,,Overcast,350,2011-11-30 16:53:00
12:53 PM,42.1,28.9,60,30.16,10.0,NNW,8.1,-,N/A,,Overcast,340,2011-11-30 17:53:00
1:53 PM,44.1,30.0,58,30.14,10.0,North,11.5,-,N/A,,Mostly Cloudy,360,2011-11-30 18:53:00
2:53 PM,45.0,28.9,53,30.13,10.0,North,9.2,-,N/A,,Scattered Clouds,10,2011-11-30 19:53:00
3:53 PM,44.1,28.9,55,30.14,10.0,North,6.9,-,N/A,,Scattered Clouds,350,2011-11-30 20:53:00
4:53 PM,44.1,28.9,55,30.14,10.0,North,4.6,-,N/A,,Partly Cloudy,360,2011-11-30 21:53:00
6:53 PM,39.0,28.9,67,30.17,10.0,Calm,Calm,-,N/A,,Clear,0,2011-11-30 23:53:00
7:53 PM,35.1,30.9,85,30.19,10.0,Calm,Calm,-,N/A,,Clear,0,2011-12-01 00:53:00
8:53 PM,35.6,30.2,81,30.20,10.0,Calm,Calm,-,N/A,,Clear,0,2011-12-01 01:53:00
9:53 PM,34.0,30.0,85,30.22,10.0,Calm,Calm,-,N/A,,Clear,0,2011-12-01 02:53:00
10:53 PM,33.1,28.9,85,30.23,10.0,NW,3.5,-,N/A,,Clear,310,2011-12-01 03:53:00
11:53 PM,32.0,28.0,85,30.24,10.0,Calm,Calm,-,N/A,,Clear,0,2011-12-01 04:53:00